Starlink 30105

operational
NORAD ID: 57433 Int'l Des: 2023-105 Owner: SPXS Country: US Constellation: starlink
LEOCIRCULAR

About Starlink 30105

Description loading...

Live Position

Loading 3D Globe...

Upcoming Passes

Altitude History

Altitude vs Time

uPlot chart will show altitude changes over time

Two-Line Element Set

1 57433U 23105D 25304.67012675 .00000605 00000-0 31505-4 0 9990
2 57433 43.0051 39.4637 0001225 292.6110 67.4612 15.27574892128591
Epoch: Oct 31, 2025 • Age: 11 hours

Current Status

Altitude 482.0 km
Velocity 7.63 km/s
Sub-Earth Point 13.72°N, 36.06°W
Launch Date Jul 24, 2023
Age 2.2 years
Type internet

Technical Details

Classification Payload
Mass 730.00 kg
Dry Mass 700.00 kg
Total Mass 730.00 kg
Length 0.30 m
Diameter 4.10 m
Span 29.00 m
Shape Box + pan
Manufacturer SPXS
Bus Type Starlink V2M
Phase Status In Orbit
Owner/State SPXS/US

Large Constellations

Loading constellations...